| time (UTC) | temp F | wind direction | speed knots | gust knots | rain 1hr in | rain 24hr in | rain mn in | humidity % | barometer mb |
| 20260504202654 | 67 | 272 | 1.7 | 7.0 | 0.00 | 0.00 | 0.00 | 43 | 1012.8 |
| 20260504202152 | 68 | 79 | 4.3 | 6.1 | 0.00 | 0.00 | 0.00 | 43 | 1013.0 |
| 20260504201648 | 68 | 85 | 1.7 | 7.0 | 0.00 | 0.00 | 0.00 | 40 | 1013.0 |
| 20260504201146 | 69 | 130 | 3.5 | 7.8 | 0.00 | 0.00 | 0.00 | 42 | 1013.1 |
| 20260504200643 | 69 | 211 | 5.2 | 7.0 | 0.00 | 0.00 | 0.00 | 40 | 1012.9 |
| 20260504200140 | 69 | 296 | 0.9 | 7.0 | 0.00 | 0.00 | 0.00 | 42 | 1012.9 |
| 20260504195635 | 69 | 97 | 1.7 | 6.1 | 0.00 | 0.00 | 0.00 | 40 | 1012.7 |
| 20260504195132 | 69 | 213 | 7.8 | 11.3 | 0.00 | 0.00 | 0.00 | 40 | 1012.8 |
| 20260504194629 | 69 | 230 | 3.5 | 13.0 | 0.00 | 0.00 | 0.00 | 40 | 1012.7 |
| 20260504194125 | 71 | 288 | 2.6 | 7.8 | 0.00 | 0.00 | 0.00 | 40 | 1012.4 |
| 20260504193621 | 71 | 282 | 5.2 | 12.2 | 0.00 | 0.00 | 0.00 | 37 | 1012.5 |
| 20260504193120 | 71 | 236 | 6.1 | 7.8 | 0.00 | 0.00 | 0.00 | 40 | 1012.8 |
| 20260504192617 | 69 | 252 | 3.5 | 6.1 | 0.00 | 0.00 | 0.00 | 43 | 1012.9 |
| 20260504192115 | 69 | 275 | 5.2 | 7.0 | 0.00 | 0.00 | 0.00 | 40 | 1013.3 |
| 20260504191614 | 70 | 324 | 4.3 | 7.8 | 0.00 | 0.00 | 0.00 | 42 | 1013.2 |
| 20260504191109 | 70 | 243 | 0.9 | 3.5 | 0.00 | 0.00 | 0.00 | 40 | 1013.1 |
| 20260504190606 | 70 | 248 | 3.5 | 7.8 | 0.00 | 0.00 | 0.00 | 42 | 1013.2 |
| 20260504185559 | 69 | 237 | 3.5 | 11.3 | 0.00 | 0.00 | 0.00 | 41 | 1013.2 |
| 20260504185055 | 68 | 309 | 6.1 | 11.3 | 0.00 | 0.00 | 0.00 | 44 | 1013.4 |
| 20260504184551 | 68 | 247 | 5.2 | 11.3 | 0.00 | 0.00 | 0.00 | 42 | 1013.9 |
| 20260504184046 | 67 | 293 | 7.0 | 7.8 | 0.00 | 0.00 | 0.00 | 43 | 1014.0 |
| 20260504183543 | 68 | 329 | 1.7 | 9.6 | 0.00 | 0.00 | 0.00 | 46 | 1013.8 |
| 20260504183042 | 67 | 137 | 1.7 | 1.7 | 0.00 | 0.00 | 0.00 | 44 | 1013.9 |
| 20260504182538 | 67 | 334 | 3.5 | 7.0 | 0.00 | 0.00 | 0.00 | 48 | 1013.8 |
| 20260504182036 | 66 | 269 | 2.6 | 3.5 | 0.00 | 0.00 | 0.00 | 47 | 1014.0 |
| 20260504181533 | 66 | 294 | 7.0 | 7.8 | 0.00 | 0.00 | 0.00 | 47 | 1014.1 |
| 20260504181031 | 66 | 202 | 7.0 | 8.7 | 0.00 | 0.00 | 0.00 | 46 | 1014.3 |
| 20260504180529 | 65 | 286 | 6.1 | 8.7 | 0.00 | 0.00 | 0.00 | 49 | 1014.7 |
| 20260504180028 | 64 | 331 | 6.1 | 7.8 | 0.00 | 0.00 | 0.00 | 50 | 1014.4 |
| 20260504175525 | 64 | 263 | 1.7 | 9.6 | 0.00 | 0.00 | 0.00 | 53 | 1014.4 |
| 20260504175022 | 65 | 231 | 3.5 | 8.7 | 0.00 | 0.00 | 0.00 | 50 | 1014.6 |
| 20260504174520 | 64 | 289 | 1.7 | 5.2 | 0.00 | 0.00 | 0.00 | 54 | 1014.5 |
| 20260504174016 | 64 | 296 | 6.1 | 7.8 | 0.00 | 0.00 | 0.00 | 53 | 1014.6 |
| 20260504173513 | 66 | 222 | 8.7 | 12.2 | 0.00 | 0.00 | 0.00 | 52 | 1014.7 |
| 20260504173011 | 64 | 137 | 0.9 | 7.0 | 0.00 | 0.00 | 0.00 | 49 | 1014.9 |
| 20260504172506 | 66 | 243 | 4.3 | 7.0 | 0.00 | 0.00 | 0.00 | 51 | 1014.9 |
| 20260504172003 | 65 | 112 | 0.0 | 1.7 | 0.00 | 0.00 | 0.00 | 57 | 1014.8 |
| 20260504171500 | 65 | 228 | 0.9 | 5.2 | 0.00 | 0.00 | 0.00 | 49 | 1014.8 |
| 20260504170957 | 63 | 224 | 1.7 | 6.1 | 0.00 | 0.00 | 0.00 | 53 | 1014.7 |
| 20260504170453 | 62 | 209 | 5.2 | 7.8 | 0.00 | 0.00 | 0.00 | 54 | 1015.1 |
| 20260504160413 | 64 | 248 | 0.9 | 2.6 | 0.00 | 0.00 | 0.00 | 49 | 1015.5 |
| 20260504150837 | 62 | 246 | 3.5 | 7.8 | 0.00 | 0.00 | 0.00 | 48 | 1016.0 |
| 20260504150333 | 62 | 207 | 1.7 | 11.3 | 0.00 | 0.00 | 0.00 | 50 | 1016.1 |
| 20260504141303 | 60 | 185 | 6.1 | 8.7 | 0.00 | 0.00 | 0.00 | 46 | 1016.1 |
| 20260504140800 | 60 | 228 | 4.3 | 6.1 | 0.00 | 0.00 | 0.00 | 47 | 1015.8 |
| 20260504140256 | 60 | 248 | 2.6 | 8.7 | 0.00 | 0.00 | 0.00 | 48 | 1015.9 |
| 20260504130725 | 55 | 109 | 1.7 | 1.7 | 0.00 | 0.00 | 0.00 | 53 | 1015.8 |
| 20260504130220 | 53 | 131 | 0.0 | 0.9 | 0.00 | 0.00 | 0.00 | 59 | 1016.0 |
| 20260504120144 | 43 | 162 | 0.9 | 1.7 | 0.00 | 0.00 | 0.00 | 83 | 1016.3 |
| 20260504110612 | 42 | 188 | 1.7 | 1.7 | 0.00 | 0.00 | 0.00 | 87 | 1016.3 |
| 20260504110108 | 42 | 128 | 0.9 | 1.7 | 0.00 | 0.00 | 0.00 | 89 | 1016.6 |
| 20260504100533 | 42 | 141 | 0.0 | 0.0 | 0.00 | 0.00 | 0.00 | 87 | 1016.7 |
| 20260504081927 | 42 | 210 | 0.9 | 2.6 | 0.00 | 0.00 | 0.00 | 87 | 1016.7 |
| 20260504081424 | 43 | 148 | 0.9 | 1.7 | 0.00 | 0.00 | 0.00 | 87 | 1016.5 |
| 20260504080920 | 43 | 122 | 0.9 | 1.7 | 0.00 | 0.00 | 0.00 | 84 | 1016.7 |
| 20260504080417 | 43 | 122 | 0.9 | 1.7 | 0.00 | 0.00 | 0.00 | 84 | 1016.7 |
| 20260504070344 | 47 | 246 | 0.9 | 1.7 | 0.00 | 0.00 | 0.00 | 60 | 1017.4 |
| 20260504050732 | 42 | 141 | 0.9 | 0.9 | 0.00 | 0.00 | 0.00 | 69 | 1017.5 |
| 20260504050229 | 42 | 142 | 0.9 | 1.7 | 0.00 | 0.00 | 0.00 | 68 | 1017.4 |
| 20260504045726 | 42 | 127 | 0.9 | 0.9 | 0.00 | 0.00 | 0.00 | 69 | 1017.5 |
| 20260504045221 | 43 | 127 | 0.0 | 1.7 | 0.00 | 0.00 | 0.00 | 65 | 1017.4 |
| 20260504044719 | 43 | 155 | 0.9 | 1.7 | 0.00 | 0.00 | 0.00 | 66 | 1017.3 |
| 20260504044216 | 43 | 164 | 0.9 | 0.9 | 0.00 | 0.00 | 0.00 | 66 | 1017.2 |
| 20260504043713 | 43 | 133 | 0.0 | 1.7 | 0.00 | 0.00 | 0.00 | 63 | 1017.3 |
| 20260504043210 | 43 | 211 | 0.9 | 0.9 | 0.00 | 0.00 | 0.00 | 65 | 1017.3 |
| 20260504042708 | 43 | 216 | 0.9 | 1.7 | 0.00 | 0.00 | 0.00 | 64 | 1017.4 |
| 20260504042204 | 43 | 130 | 0.0 | 0.9 | 0.00 | 0.00 | 0.00 | 66 | 1017.4 |
| 20260504041700 | 43 | 144 | 0.9 | 1.7 | 0.00 | 0.00 | 0.00 | 68 | 1017.4 |
| 20260504041155 | 43 | 144 | 0.0 | 0.9 | 0.00 | 0.00 | 0.00 | 68 | 1017.2 |
| 20260504040653 | 43 | 144 | 0.9 | 0.9 | 0.00 | 0.00 | 0.00 | 67 | 1017.5 |
| 20260504040150 | 43 | 144 | 0.9 | 1.7 | 0.00 | 0.00 | 0.00 | 68 | 1017.3 |
| 20260504035646 | 42 | 144 | 0.0 | 0.0 | 0.00 | 0.00 | 0.00 | 67 | 1017.4 |
| 20260504035143 | 43 | 144 | 0.0 | 0.0 | 0.00 | 0.00 | 0.00 | 71 | 1017.3 |
| 20260504034641 | 43 | 144 | 0.0 | 0.9 | 0.00 | 0.00 | 0.00 | 70 | 1017.3 |
| 20260504034138 | 43 | 156 | 0.9 | 1.7 | 0.00 | 0.00 | 0.00 | 65 | 1017.4 |
| 20260504033635 | 44 | 126 | 0.9 | 0.9 | 0.00 | 0.00 | 0.00 | 63 | 1017.2 |
| 20260504033133 | 43 | 126 | 0.0 | 0.9 | 0.00 | 0.00 | 0.00 | 66 | 1017.3 |
| 20260504032629 | 43 | 126 | 0.9 | 0.9 | 0.00 | 0.00 | 0.00 | 65 | 1017.2 |
| 20260504032126 | 44 | 126 | 0.0 | 0.9 | 0.00 | 0.00 | 0.00 | 62 | 1017.3 |
| 20260504031624 | 44 | 126 | 1.7 | 1.7 | 0.00 | 0.00 | 0.00 | 61 | 1017.3 |
| 20260504031120 | 44 | 126 | 0.9 | 0.9 | 0.00 | 0.00 | 0.00 | 60 | 1017.5 |
| 20260504030617 | 45 | 126 | 0.9 | 1.7 | 0.00 | 0.00 | 0.00 | 59 | 1017.5 |
| 20260504030113 | 45 | 116 | 1.7 | 1.7 | 0.00 | 0.00 | 0.00 | 56 | 1017.3 |
| 20260504025610 | 46 | 145 | 0.9 | 0.9 | 0.00 | 0.00 | 0.00 | 57 | 1017.3 |
| 20260504025107 | 46 | 168 | 0.9 | 0.9 | 0.00 | 0.00 | 0.00 | 58 | 1017.3 |
| 20260504024604 | 46 | 168 | 0.9 | 0.9 | 0.00 | 0.00 | 0.00 | 58 | 1017.5 |
| 20260504024101 | 46 | 168 | 0.0 | 0.9 | 0.00 | 0.00 | 0.00 | 56 | 1017.5 |
| 20260504023557 | 46 | 172 | 0.9 | 0.9 | 0.00 | 0.00 | 0.00 | 56 | 1017.5 |
| 20260504023053 | 46 | 179 | 0.0 | 0.9 | 0.00 | 0.00 | 0.00 | 54 | 1017.4 |
| 20260504022550 | 46 | 179 | 0.9 | 0.9 | 0.00 | 0.00 | 0.00 | 56 | 1017.5 |
| 20260504022046 | 46 | 217 | 0.9 | 0.9 | 0.00 | 0.00 | 0.00 | 57 | 1017.5 |
| 20260504021543 | 46 | 217 | 0.0 | 0.9 | 0.00 | 0.00 | 0.00 | 56 | 1017.4 |
| 20260504021040 | 46 | 217 | 0.0 | 0.9 | 0.00 | 0.00 | 0.00 | 54 | 1017.5 |
| 20260504020537 | 46 | 217 | 0.9 | 0.9 | 0.00 | 0.00 | 0.00 | 58 | 1017.6 |
| 20260504020034 | 46 | 217 | 0.0 | 0.9 | 0.00 | 0.00 | 0.00 | 56 | 1017.5 |
| 20260504015530 | 46 | 217 | 0.0 | 0.9 | 0.00 | 0.00 | 0.00 | 58 | 1017.5 |
| 20260504015026 | 47 | 217 | 0.0 | 0.0 | 0.00 | 0.00 | 0.00 | 56 | 1017.2 |
| 20260504014522 | 46 | 217 | 0.0 | 0.9 | 0.00 | 0.00 | 0.00 | 54 | 1017.3 |
| 20260504014020 | 47 | 217 | 0.0 | 0.0 | 0.00 | 0.00 | 0.00 | 53 | 1017.3 |
| 20260504013518 | 47 | 217 | 0.0 | 0.0 | 0.00 | 0.00 | 0.00 | 52 | 1017.4 |
| 20260504013014 | 47 | 217 | 0.0 | 0.0 | 0.00 | 0.00 | 0.00 | 51 | 1017.4 |
| 20260504012512 | 47 | 217 | 0.0 | 0.0 | 0.00 | 0.00 | 0.00 | 51 | 1017.3 |
| 20260504012010 | 47 | 217 | 0.0 | 0.9 | 0.00 | 0.00 | 0.00 | 50 | 1017.4 |
| 20260504011506 | 47 | 217 | 0.0 | 0.0 | 0.00 | 0.00 | 0.00 | 54 | 1017.0 |
| 20260504011001 | 47 | 217 | 0.0 | 0.9 | 0.00 | 0.00 | 0.00 | 53 | 1017.0 |
| 20260504010458 | 47 | 217 | 0.0 | 0.0 | 0.00 | 0.00 | 0.00 | 49 | 1017.0 |
| 20260504005953 | 47 | 217 | 0.0 | 0.9 | 0.00 | 0.00 | 0.00 | 52 | 1016.9 |
| 20260504005451 | 47 | 217 | 0.9 | 0.9 | 0.00 | 0.00 | 0.00 | 55 | 1017.0 |
| 20260504004948 | 47 | 217 | 0.0 | 0.0 | 0.00 | 0.00 | 0.00 | 51 | 1017.0 |
| 20260504004446 | 48 | 222 | 0.0 | 0.0 | 0.00 | 0.00 | 0.00 | 55 | 1016.9 |
| 20260504003943 | 49 | 222 | 0.0 | 0.9 | 0.00 | 0.00 | 0.00 | 54 | 1016.7 |
| 20260504003439 | 49 | 130 | 1.7 | 2.6 | 0.00 | 0.00 | 0.00 | 41 | 1016.7 |
| 20260504002935 | 49 | 117 | 0.0 | 0.9 | 0.00 | 0.00 | 0.00 | 42 | 1016.6 |
| 20260504002433 | 50 | 116 | 0.0 | 0.9 | 0.00 | 0.00 | 0.00 | 41 | 1016.7 |
| 20260504001930 | 50 | 91 | 0.9 | 1.7 | 0.00 | 0.00 | 0.00 | 39 | 1016.7 |
| 20260504001427 | 50 | 294 | 0.0 | 1.7 | 0.00 | 0.00 | 0.00 | 39 | 1016.6 |
| 20260504000924 | 50 | 186 | 0.0 | 0.0 | 0.00 | 0.00 | 0.00 | 41 | 1016.7 |
| 20260504000423 | 51 | 187 | 0.0 | 0.9 | 0.00 | 0.00 | 0.00 | 38 | 1016.6 |
| 20260503235918 | 51 | 263 | 0.9 | 2.6 | 0.00 | 0.00 | 0.00 | 38 | 1016.6 |
| 20260503235416 | 52 | 291 | 0.0 | 0.9 | 0.00 | 0.00 | 0.00 | 35 | 1016.6 |
| 20260503234913 | 52 | 314 | 0.9 | 2.6 | 0.00 | 0.00 | 0.00 | 34 | 1017.0 |
| 20260503234411 | 51 | 45 | 2.6 | 3.5 | 0.00 | 0.00 | 0.00 | 36 | 1016.9 |
| 20260503233909 | 51 | 82 | 0.9 | 1.7 | 0.00 | 0.00 | 0.00 | 46 | 1016.9 |
| 20260503233405 | 52 | 257 | 0.9 | 0.9 | 0.00 | 0.00 | 0.00 | 38 | 1016.6 |
| 20260503232901 | 53 | 302 | 1.7 | 5.2 | 0.00 | 0.00 | 0.00 | 35 | 1016.9 |
| 20260503232359 | 55 | 45 | 3.5 | 7.0 | 0.00 | 0.00 | 0.00 | 36 | 1016.7 |
| 20260503231856 | 56 | 292 | 0.9 | 3.5 | 0.00 | 0.00 | 0.00 | 32 | 1016.9 |
| 20260503231353 | 56 | 68 | 0.9 | 1.7 | 0.00 | 0.00 | 0.00 | 32 | 1016.7 |
| 20260503230849 | 55 | 313 | 3.5 | 6.1 | 0.00 | 0.00 | 0.00 | 31 | 1016.7 |
| 20260503230346 | 56 | 293 | 1.7 | 3.5 | 0.00 | 0.00 | 0.00 | 34 | 1016.4 |
| 20260503225844 | 57 | 300 | 3.5 | 5.2 | 0.00 | 0.00 | 0.00 | 35 | 1016.6 |
| 20260503225339 | 57 | 145 | 0.9 | 2.6 | 0.00 | 0.00 | 0.00 | 34 | 1016.7 |
| 20260503224836 | 57 | 304 | 2.6 | 3.5 | 0.00 | 0.00 | 0.00 | 34 | 1016.6 |
| 20260503224333 | 57 | 72 | 1.7 | 2.6 | 0.00 | 0.00 | 0.00 | 36 | 1016.7 |
| 20260503223831 | 56 | 71 | 0.9 | 6.1 | 0.00 | 0.00 | 0.00 | 36 | 1016.6 |
| 20260503223328 | 58 | 136 | 2.6 | 3.5 | 0.00 | 0.00 | 0.00 | 31 | 1016.7 |
| 20260503222824 | 57 | 304 | 3.5 | 5.2 | 0.00 | 0.00 | 0.00 | 31 | 1016.6 |
| 20260503222323 | 57 | 280 | 5.2 | 7.8 | 0.00 | 0.00 | 0.00 | 29 | 1016.7 |
| 20260503221820 | 58 | 41 | 1.7 | 5.2 | 0.00 | 0.00 | 0.00 | 33 | 1016.6 |
| 20260503221319 | 58 | 181 | 2.6 | 6.1 | 0.00 | 0.00 | 0.00 | 29 | 1016.5 |
| 20260503220814 | 58 | 276 | 2.6 | 3.5 | 0.00 | 0.00 | 0.00 | 33 | 1016.7 |
| 20260503220312 | 56 | 253 | 0.0 | 6.1 | 0.00 | 0.00 | 0.00 | 30 | 1016.6 |
| 20260503215808 | 58 | 291 | 3.5 | 6.1 | 0.00 | 0.00 | 0.00 | 34 | 1016.4 |
| 20260503215305 | 58 | 296 | 1.7 | 2.6 | 0.00 | 0.00 | 0.00 | 35 | 1016.4 |
| 20260503214803 | 57 | 56 | 0.9 | 3.5 | 0.00 | 0.00 | 0.00 | 33 | 1016.6 |
| 20260503214300 | 57 | 244 | 2.6 | 5.2 | 0.00 | 0.00 | 0.00 | 34 | 1016.4 |
| 20260503213758 | 57 | 252 | 1.7 | 3.5 | 0.00 | 0.00 | 0.00 | 34 | 1016.4 |
| 20260503213255 | 57 | 226 | 0.0 | 5.2 | 0.00 | 0.00 | 0.00 | 31 | 1016.4 |
| 20260503212752 | 57 | 305 | 1.7 | 3.5 | 0.00 | 0.00 | 0.00 | 29 | 1016.6 |
| 20260503212249 | 57 | 49 | 2.6 | 8.7 | 0.00 | 0.00 | 0.00 | 31 | 1016.6 |
| 20260503211747 | 57 | 321 | 2.6 | 2.6 | 0.00 | 0.00 | 0.00 | 30 | 1016.5 |
| 20260503211243 | 58 | 306 | 3.5 | 6.1 | 0.00 | 0.00 | 0.00 | 31 | 1016.6 |
| 20260503210738 | 56 | 268 | 1.7 | 5.2 | 0.00 | 0.00 | 0.00 | 32 | 1016.7 |
| 20260503210236 | 57 | 273 | 5.2 | 7.8 | 0.00 | 0.00 | 0.00 | 32 | 1016.7 |
| 20260503205731 | 58 | 322 | 3.5 | 5.2 | 0.00 | 0.00 | 0.00 | 33 | 1016.7 |
| 20260503205228 | 58 | 308 | 3.5 | 5.2 | 0.00 | 0.00 | 0.00 | 32 | 1016.9 |
| 20260503204724 | 56 | 305 | 0.9 | 2.6 | 0.00 | 0.00 | 0.00 | 36 | 1016.9 |
| 20260503204222 | 56 | 301 | 0.9 | 7.0 | 0.00 | 0.00 | 0.00 | 28 | 1016.9 |
| 20260503203719 | 58 | 121 | 3.5 | 7.0 | 0.00 | 0.00 | 0.00 | 29 | 1016.9 |
| 20260503203217 | 57 | 32 | 0.9 | 6.1 | 0.00 | 0.00 | 0.00 | 28 | 1017.1 |